{"data":{"norad_id":62926,"epoch":"2026-09-21T22:26:17.712672Z","epoch_age_seconds":44282,"freshness":"FRESH","line1":"1 62926U 25027V   26264.93492723  .00009634  00000+0  35912-3 0  9994","line2":"2 62926  43.0055 100.7344 0002289 256.6566 103.4031 15.27583757 91552","mean_motion":15.27583757,"eccentricity":0.0002289,"inclination_deg":43.0055,"raan_deg":100.7344,"arg_perigee_deg":256.6566,"mean_anomaly_deg":103.4031,"bstar":0.00035912,"rev_number":9155,"period_min":94.266516870276,"perigee_km":481.46732333083,"apogee_km":484.60836917544,"semimajor_km":6861.1748462531,"source":"CELESTRAK","updated_at":"2026-09-22T09:00:49.710525Z"}}